Weather History for Houston Hull, TX

Change the Weather History Date:

Tuesday, December 17, 2013

  Actual Average Record
Temperature  
Mean Temperature 52 °F -  
Max Temperature 69 °F 63 °F 82 °F (1971)
Min Temperature 34 °F 41 °F 23 °F (1989)
Degree Days  
Heating Degree Days 14    
Growing Degree Days 2 (Base 50)    
Moisture  
Dew Point 39 °F    
Average Humidity 83    
Maximum Humidity 100    
Minimum Humidity 32    
Precipitation  
Precipitation 0.00 in - - ()
Sea Level Pressure  
Sea Level Pressure 30.30 in    
Wind  
Wind Speed 0 mph (SW)    
Max Wind Speed 5 mph    
Max Gust Speed -    
Visibility 5 miles    
Events      
Averages and records for this station are not official NWS values.
T = Trace of Precipitation, MM = Missing Value Source: NWS Daily Summary

Daily Weather History Graph

Daily Weather History Graph

Search for Another Location

Airport:

Trip Planner

Search our weather history database for the weather conditions in past years. The results will help you decide how hot, cold, wet, or windy it might be!

Date:

Astronomy

Dec. 17, 2013 Rise Set
Actual Time 7:11 AM CST 5:26 PM CST
Civil Twilight 6:45 AM CST 5:52 PM CST
Nautical Twilight 6:15 AM CST 6:22 PM CST
Astronomical Twilight 5:46 AM CST 6:51 PM CST
Moon 6:02 PM CST (12/17) 7:12 AM CST (12/17)
Length of Visible Light 11h 07m
Length of Day
10h 15m
Full, 100% of the Moon is Illuminated
Dec 17
Full
Dec 25
Last Quarter
Jan 1
New
Jan 7
First Quarter
Jan 15
Full

Hourly Weather History & Observations

Time (CST) Temp. Windchill Dew Point Humidity Pressure Visibility Wind Dir Wind Speed Gust Speed Precip Events Conditions
12:53 AM 37.9 °F - 37.0 °F 97% 30.29 in 7.0 mi Calm Calm - N/A   Clear
1:53 AM 37.9 °F - 36.0 °F 93% 30.28 in 4.0 mi Calm Calm - N/A   Clear
2:25 AM 37.4 °F - 35.6 °F 93% 30.28 in 1.8 mi Calm Calm - N/A   Clear
2:42 AM 35.6 °F - 35.6 °F 100% 30.28 in 3.0 mi Calm Calm - N/A   Clear
2:47 AM 37.4 °F - 35.6 °F 93% 30.28 in 1.8 mi Calm Calm - N/A   Clear
2:53 AM 37.0 °F - 35.1 °F 93% 30.28 in 1.0 mi Calm Calm - N/A   Clear
3:00 AM 37.4 °F - 35.6 °F 93% 30.28 in 3.0 mi Calm Calm - N/A   Clear
3:08 AM 35.6 °F - 35.6 °F 100% 30.27 in 1.8 mi Calm Calm - N/A   Clear
3:19 AM 35.6 °F - 35.6 °F 100% 30.28 in 3.0 mi Calm Calm - N/A   Clear
3:53 AM 36.0 °F - 35.1 °F 97% 30.28 in 6.0 mi Calm Calm - N/A   Clear
4:53 AM 36.0 °F - 34.0 °F 93% 30.29 in 4.0 mi Calm Calm - N/A   Clear
5:46 AM 35.6 °F - 33.8 °F 93% 30.29 in 1.8 mi Calm Calm - N/A   Clear
5:53 AM 34.0 °F - 34.0 °F 100% 30.30 in 0.8 mi Calm Calm - N/A   Clear
6:03 AM 35.6 °F - 33.8 °F 93% 30.29 in 2.0 mi Calm Calm - N/A   Clear
6:10 AM 35.6 °F - 35.6 °F 100% 30.30 in 7.0 mi Calm Calm - N/A   Clear
6:53 AM 35.1 °F - 34.0 °F 96% 30.32 in 4.0 mi Calm Calm - N/A   Clear
7:06 AM 35.6 °F - 33.8 °F 93% 30.31 in 2.5 mi Calm Calm - N/A   Clear
7:49 AM 35.6 °F - 35.6 °F 100% 30.33 in 3.0 mi Calm Calm - N/A   Clear
7:53 AM 35.1 °F - 34.0 °F 96% 30.34 in 3.0 mi Calm Calm - N/A   Clear
8:53 AM 48.9 °F - 44.1 °F 83% 30.35 in 6.0 mi Calm Calm - N/A   Haze
9:53 AM 55.9 °F - 48.0 °F 75% 30.36 in 9.0 mi Calm Calm - N/A   Clear
10:53 AM 61.0 °F - 48.0 °F 62% 30.35 in 10.0 mi West 4.6 mph - N/A   Clear
11:53 AM 66.0 °F - 45.0 °F 47% 30.32 in 10.0 mi WNW 4.6 mph - N/A   Clear
12:53 PM 68.0 °F - 41.0 °F 37% 30.29 in 10.0 mi Variable 3.5 mph - N/A   Clear
1:53 PM 69.1 °F - 37.9 °F 32% 30.27 in 7.0 mi Calm Calm - N/A   Clear
2:53 PM 69.1 °F - 39.0 °F 33% 30.26 in 10.0 mi Calm Calm - N/A   Clear
3:53 PM 69.1 °F - 39.0 °F 33% 30.25 in 10.0 mi Calm Calm - N/A   Clear
4:53 PM 68.0 °F - 39.0 °F 35% 30.26 in 10.0 mi Calm Calm - N/A   Clear
5:53 PM 55.0 °F - 39.9 °F 57% 30.27 in 10.0 mi Calm Calm - N/A   Clear
6:53 PM 52.0 °F - 39.9 °F 63% 30.29 in 10.0 mi Calm Calm - N/A   Clear
7:53 PM 48.0 °F - 39.9 °F 74% 30.30 in 10.0 mi SSE 4.6 mph - N/A   Clear
8:53 PM 48.9 °F - 43.0 °F 80% 30.31 in 10.0 mi Calm Calm - N/A   Clear
9:53 PM 45.0 °F 43.5 °F 43.0 °F 93% 30.32 in 10.0 mi South 3.5 mph - N/A   Clear
10:53 PM 45.0 °F - 43.0 °F 93% 30.31 in 4.0 mi Calm Calm - N/A   Clear
11:01 PM 44.6 °F - 42.8 °F 93% 30.30 in 1.8 mi Calm Calm - N/A   Clear
11:13 PM 44.6 °F - 44.6 °F 100% 30.30 in 3.0 mi Calm Calm - N/A   Clear
11:17 PM 44.6 °F - 44.6 °F 100% 30.30 in 1.5 mi Calm Calm - N/A   Clear
11:29 PM 44.6 °F 43.1 °F 42.8 °F 93% 30.30 in 3.0 mi SSW 3.5 mph - N/A   Clear
11:53 PM 46.0 °F - 45.0 °F 96% 30.31 in 3.0 mi Calm Calm - N/A   Clear
11:59 PM 44.6 °F - 44.6 °F 100% 30.30 in 1.8 mi Calm Calm - N/A   Clear